www.pogodaiklimat.ru

Погода и климат >> Архив погоды >> Мексика >> Culiacan


ПОГОДА в Culiacan

  • Прогноз погоды в Culiacan
  • Монитор погоды в Culiacan
  • Климат города

АРХИВ ПОГОДЫ в Culiacan

Время (UTC), дата Ветер
(напр.,м/с)
 
Видим.   Явления Облачность Т
(С)
Тd
(С)
f
(%)
Тe
(С)
Тes
(С)
Комфортность P
(гПа)
Po
(гПа)
Тmin
(С)
Tmax
(С)
R
(мм)
R24
(мм)
S
(см)
21 18.05 ЮЗ 1 16 км ясно +34.4 +19.6 42 +40 +61 опасность
солнечного
удара
1010.5 1006.2
00 19.05 З 1 16 км ясно +32.4 +20.0 48 +39 +43 очень
душно
1009.4 1005.0 +21.2 +35.1
03 19.05 ЮЗ 1 16 км ясно +25.5 +20.8 75 +32 +32 очень
душно
1010.5 1006.2
06 19.05 ЮВ 1 16 км ясно +20.8 +20.2 96 +27 +27 душно 1011.3 1007.0 +21.2 +35.1
12 19.05 В 1 16 км ясно +19.5 +19.5 100 +23 +23 комфорт 1011.5 1007.1 +17.8 +35.1
15 19.05 ЮВ 2 16 км 3/0 2000 м
[As trans]
+24.9 +23.5 92 +34 +39 очень
душно
1013.8 1009.3
18 19.05 ЮЗ 2 16 км ясно +32.5 +20.3 49 +39 +60 опасность
солнечного
удара
1013.0 1008.5 +17.8 +33.0
21 19.05 ЮЗ 3 16 км ясно +34.6 +11.3 24 +34 +49 очень
жарко
1011.3 1006.8
00 20.05 ЮЗ 3 16 км ясно +33.2 +11.2 26 +33 +36 жарко 1009.2 1004.8 +17.8 +35.3
03 20.05 СЗ 1 16 км ясно +25.4 +15.5 54 +28 +28 жарко 1010.7 1006.3
06 20.05 ЮВ 1 16 км ясно +20.4 +16.1 76 +24 +24 комфорт 1012.4 1008.0 +18.0 +35.3
09 20.05 ЮВ 1 16 км ясно +18.1 +15.3 84 +19 +19 1011.8 1007.4
12 20.05 С 1 16 км ясно +15.6 +17 +17 1012.0 1007.5 +14.8 +35.3
06 21.05 В 1 16 км ясно +20.8 +15.5 72 +25 +25 комфорт 1011.9 1007.5 +14.8 +35.8
09 21.05 В 1 16 км ясно +18.2 +16.3 89 +20 +20 1011.1 1006.7
12 21.05 В 1 16 км ясно +17.1 +15.4 90 +18 +18 1011.7 1007.3 +16.7 +35.8
15 21.05 ЮВ 1 16 км ясно +27.7 +14.7 45 +30 +38 жарко 1013.9 1009.4
18 21.05 ЮЗ 3 16 км ясно +32.7 +12.9 30 +33 +50 жарко 1012.8 1008.3 +16.7 +33.0
21 21.05 Ю 3 16 км ясно +33.4 +10.8 25 +33 +48 жарко 1011.3 1006.9
00 22.05 ЮЗ 3 16 км ясно +32.1 +13.9 33 +33 +36 жарко 1010.3 1005.9 +16.7 +34.4
03 22.05 ЮЗ 2 16 км ясно +25.5 +20.2 73 +31 +31 очень
душно
1012.7 1008.4
06 22.05 В 1 16 км ясно +21.7 +17.5 77 +26 +26 душно 1013.5 1009.1 +16.7 +34.4
09 22.05 В 2 16 км ясно +20.1 +19.1 94 +24 +24 комфорт 1012.9 1008.5
12 22.05 В 2 16 км ясно +19.1 +19.0 99 +22 +22 комфорт 1013.1 1008.7 +18.9 +34.4
15 22.05 ЮВ 1 16 км ясно +27.4 +18.6 59 +32 +40 очень
душно
1014.6 1010.1
18 22.05 Ю 1 16 км ясно +32.6 +15.6 36 +35 +59 опасность
солнечного
удара
1013.7 1009.2 +18.4 +33.0
21 22.05 Ю 1 16 км ясно +31.4 +18.1 45 +36 +57 опасность
солнечного
удара
1011.7 1007.3
00 23.05 ЮЗ 1 16 км ясно +31.0 +16.0 40 +34 +38 душно 1010.5 1006.1 +18.4 +33.6
03 23.05 З 1 16 км ясно +24.4 +18.2 68 +29 +29 душно 1011.9 1007.5
06 23.05 штиль 0 16 км ясно +21.0 +15.7 72 +24 +24 комфорт 1012.6 1008.2 +18.4 +33.6
09 23.05 ЮВ 1 16 км ясно +18.4 +17.6 95 +20 +20 1011.9 1007.5
12 23.05 В 1 16 км ясно +16.8 +15.5 92 +18 +18 1012.5 1008.0 +16.4
15 23.05 Ю 1 16 км ясно +26.4 +16.8 56 +30 +38 душно 1013.6 1009.1
18 23.05 ЮЗ 1 16 км ясно +31.2 +17.3 43 +35 +59 опасность
солнечного
удара
1013.9 1009.4 +16.0 +32.0
21 23.05 ЮЗ 2 16 км ясно +32.2 +15.3 36 +34 +52 опасность
солнечного
удара
1013.0 1008.6
00 24.05 ЮЗ 2 16 км ясно +33.2 +15.8 35 +36 +39 очень
душно
1012.0 1007.6 +16.0 +34.8
03 24.05 З 1 16 км ясно +28.0 +15.5 47 +31 +31 душно 1012.9 1008.6
12 24.05 В 1 16 км ясно +17.2 +13.6 79 +18 +18 1013.4 1008.9 +16.8 +34.8
18 24.05 СЗ 1 16 км ясно +35.7 +10.6 22 +35 +59 опасность
солнечного
удара
1015.3 1010.8 +16.0 +34.8
21 24.05 З 2 16 км ясно +37.2 +8.9 18 +35 +54 опасность
солнечного
удара
1013.5 1009.0
00 25.05 З 2 16 км ясно +35.4 +13.2 26 +36 +39 очень
жарко
1011.8 1007.4 +16.0 +37.9
06 25.05 В 1 16 км ясно +23.0 +15.9 64 +27 +27 душно 1013.6 1009.3 +16.0 +37.9
09 25.05 В 1 16 км ясно +20.6 +16.3 76 +25 +25 комфорт 1013.3 1009.1
12 25.05 В 1 16 км ясно +19.5 +17.8 90 +23 +23 комфорт 1014.1 1009.7 +19.4 +37.9
15 25.05 Ю 2 16 км ясно +29.5 +21.3 61 +37 +44 очень
душно
1015.0 1010.5

 

Местоположение метеостанции Culiacan (Мексика): широта 24.80 долгота -107.40 высота над уровнем моря 39 м.

В архиве по умолчанию представлена погода в Culiacan за последнюю неделю. Архивные данные за месяц целиком и за предыдущие месяцы, начиная с января 2011 года, Вы можете получить, выбрав интересующий диапазон дат из раскрывающегося списка и нажав кнопку "Ввод!".


*Определитесь, кто Вы:
робот инопланетянин человек

Внимание! Время в таблицах - всемирное. Для получения местного времени необходимо прибавить поправку, которая в Culiacan равна -7 ч.

Смотрите также архив погоды в соседних городах и на ближайших метеорологических станциях:

Погода в Tepehuanes (Мексика) (180 км)
Погода в Mazatlan (Мексика) (205 км)
Погода в Choix (Мексика) (229 км)
Погода в Durango (Мексика) (296 км)
Погода в Hidalgo del Parral (Мексика) (298 км)
Погода в La Paz (Мексика) (302 км)
Погода в Ciudad Obregon (Мексика) (377 км)
Погода в Sombrerete (Мексика) (407 км)
Погода в Torreon (Мексика) (411 км)
Погода в Loreto (Мексика) (415 км)

Пояснения к столбцам:

Ветер - указаны скорость ветра в м/с - средняя за 10 мин, порывы в срок и между сроками (в фигурных скобках) и направление, откуда дует ветер: С - северный, СВ - северо-восточный, В - восточный, ЮВ - юго-восточный, Ю - южный, ЮЗ - юго-западный, З - западный, СЗ - северо-западный.
Видимость - горизонтальная дальность видимости в метрах или километрах. При видимости от 1 до 10 км при отсутствии осадков обычно наблюдается дымка, при ухудшении видимости до 1 км и менее - туман. В сухую погоду видимость может ухудшаться дымом, пылью или мглою.
Явления - указаны атмосферные явления, наблюдавшиеся в срок или в последний час перед сроком; фигурными скобками обозначены явления, наблюдавшиеся между сроками (за 1-3 часа до срока); квадратными скобками обозначены град или гололедные отложения с указанием их диаметра в мм.
Облачность - указаны через наклонную черту общая и нижняя облачность в баллах и высота нижней границы облаков в метрах; квадратными скобками обозначены формы облаков: Ci - перистые, Cs - перисто-слоистые, Cc - перисто-кучевые, Ac - высококучевые, As - высокослоистые, Sc - слоисто-кучевые, Ns - слоисто-дождевые, Cu - кучевые, Cb - кучево-дождевые. Подробнее классификацию облаков см. в Атласе облаков (PDF).
T - Температура воздуха - температура, измеренная на высоте 2 м над землей.
Td - Температура точки росы - температура, при понижении до которой содержащийся в воздухе водяной пар достигнет насыщения.
f - Относительная влажность воздуха - влажноcть воздуха, измеренная на высоте 2 м над землей.
Te - Эффективная температура - температура, которую ощущает одетый по сезону человек в тени. Характеристика душности погоды. При расчете учитывается влияние влажности воздуха и скорости ветра на теплоощущения человека.
Tes - Эффективная температура на солнце - температура, которую ощущает человек, с поправкой на солнечный нагрев. Характеристика знойности погоды. Зависит от высоты солнца над горизонтом, облачности и скорости ветра. Ночью, в пасмурную погоду, а также при ветре 12 м/с и более поправка равна нулю.
P - Атмосферное давление - приведенное к уровню моря атмосферное давление.
Po - Атмосферное давление - измеренное на уровне метеостанции атмосферное давление.
Tmin - Минимальная температура - минимум температуры воздуха на высоте 2 м над землей.
Tmax - Максимальная температура - максимум температуры воздуха на высоте 2 м над землей.
R - Количество осадков - Количество выпавших осадков за период времени, мм. При наведении курсора мыши на число - период времени, за который выпало указанное количество осадков.
R24 - Количество осадков - Количество выпавших осадков за 24 часа, мм.
S - Снежный покров - Высота снежного покрова, см. При наведении курсора мыши на число - состояние снежного покрова и степень покрытия местности в баллах.